Flag for U.S.A. Weather past 2 weeks in Paradise, Nevada, U.S.A.

Now
79 °F

Clear.


Feels Like: 78 °F
Forecast: 68 / 95 °F
Wind: 9 mph from Southwest

Location: McCarran International Airport

Current Time: Sep 23, 2014 at 2:00:29 AM

Latest Report: Sep 23, 2014 at 12:56 AM


Visibility: 10 mi

Pressure: 29.87 "Hg

Humidity: 23%

Dew point: 38 °F

Location of ParadiseLocation

Historic Weather in Paradise — Graph

°F

Paradise temperature yesterday

Maximum temperature yesterday: 95 °F (at 3:56 PM)
Minimum temperature yesterday: 75 °F (at 5:56 AM)
Average temperature yesterday: 85 °F

Past Weeks' High & Low Weather Summary

 TemperatureHumidityPressure
High103 °F (Sep 15, 3:56 PM)94% (Sep 8, 5:56 PM)29.95 "Hg (Sep 8, 5:56 PM)
Low71 °F (Sep 10, 5:56 AM)8% (Sep 11, 3:56 PM)29.57 "Hg (Sep 18, 3:56 PM)
Average86 °F30%29.77 "Hg
* Reported Sep 8 12:56 AM — Sep 23 12:56 AM, Paradise, Weather by CustomWeather, © 2014

Note: Actual official high and low records may vary slightly from our data, if they occured in-between our weather recording intervals... More about our weather records

Advertising

Paradise weather history for previous 24 hours

 ConditionsComfort  
Time TempWeatherWind HumidityBarometerVisibility
12:56 AM
Sep 23
79 °FClear.9 mph23%29.87 "Hg10 mi
11:56 PM
Sep 22
81 °FClear.8 mph23%29.86 "Hg10 mi
10:56 PM82 °FClear.9 mph22%29.86 "Hg10 mi
9:56 PM86 °FClear.7 mph17%29.85 "Hg10 mi
8:56 PM88 °FClear.6 mph17%29.84 "Hg10 mi
7:56 PM90 °FClear.6 mph16%29.83 "Hg10 mi
6:56 PM91 °FSunny.7 mph17%29.81 "Hg10 mi
5:56 PM93 °FSunny.8 mph16%29.80 "Hg10 mi
4:56 PM94 °FSunny.8 mph16%29.81 "Hg10 mi
3:56 PM95 °FPassing clouds.8 mph15%29.82 "Hg10 mi
2:56 PM94 °FPassing clouds.9 mph17%29.84 "Hg10 mi
1:56 PM94 °FPassing clouds.12 mph18%29.86 "Hg10 mi
12:56 PM91 °FPassing clouds.5 mph19%29.89 "Hg10 mi
11:56 AM88 °FPassing clouds.No wind25%29.93 "Hg10 mi
10:56 AM85 °FSunny.6 mph30%29.94 "Hg10 mi
9:56 AM83 °FSunny.5 mph34%29.95 "Hg10 mi
8:56 AM80 °FSunny.No wind36%29.95 "Hg10 mi
7:56 AM77 °FSunny.6 mph40%29.93 "Hg10 mi
6:56 AM75 °FClear.6 mph43%29.92 "Hg10 mi
5:56 AM75 °FClear.7 mph47%29.89 "Hg10 mi
4:56 AM76 °FClear.No wind47%29.88 "Hg10 mi
3:56 AM76 °FClear.3 mph39%29.87 "Hg10 mi
2:56 AM78 °FClear.7 mph32%29.87 "Hg10 mi
Weather by CustomWeather, © 2014

See weather overviewHow to use our weather pages